Flag for Germany Weather past 2 weeks in Offenbach, Hesse, Germany

Now
48 °F

Drizzle. Partly sunny.


Feels Like: 45 °F
Forecast: 41 / 53 °F
Wind: 8 mph from South

Location: Frankfurt-M-Flughafen Airport

Current Time: Dec 18, 2014 at 1:01:10 PM

Latest Report: Dec 18, 2014 at 12:20 PM


Visibility: 2 mi

Pressure: 29.92 "Hg

Humidity: 100%

Dew point: 48 °F

Location of OffenbachLocation

Historic Weather in Offenbach — Graph

°F

Offenbach temperature yesterday

Maximum temperature yesterday: 45 °F (at 10:50 PM)
Minimum temperature yesterday: 32 °F (at 12:20 AM)
Average temperature yesterday: 38 °F

Past Weeks' High & Low Weather Summary

 TemperatureHumidityPressure
High52 °F (Dec 12, 7:50 PM)100% (Dec 6, 1:20 AM)30.42 "Hg (Dec 6, 1:20 AM)
Low28 °F (Dec 8, 10:20 PM)67% (Dec 12, 1:20 PM)29.59 "Hg (Dec 12, 6:20 PM)
Average39 °F90%30.02 "Hg
* Reported Dec 3 11:20 AM — Dec 18 11:20 AM, Offenbach, Weather by CustomWeather, © 2014

Note: Actual official high and low records may vary slightly from our data, if they occured in-between our weather recording intervals... More about our weather records

Advertising

Offenbach weather history for previous 24 hours

 ConditionsComfort  
Time TempWeatherWind HumidityBarometerVisibility
11:20 AM
Dec 18
48 °FDrizzle. Partly sunny.9 mph94%29.95 "Hg3 mi
10:50 AM48 °FPartly sunny.8 mph94%29.95 "HgN/A
10:20 AM48 °FDrizzle. Partly sunny.9 mph94%29.92 "HgN/A
9:50 AM46 °FDrizzle. Partly sunny.10 mph100%29.95 "Hg6 mi
9:20 AM46 °FDrizzle. More clouds than sun.12 mph100%29.92 "Hg4 mi
8:50 AM46 °FDrizzle. Mostly cloudy.12 mph100%29.92 "Hg3 mi
8:20 AM46 °FDrizzle. More clouds than sun.12 mph100%29.92 "Hg4 mi
7:50 AM46 °FPassing clouds.10 mph100%29.92 "Hg5 mi
7:20 AM46 °FLight rain. Passing clouds.10 mph100%29.92 "Hg4 mi
6:50 AM46 °FPassing clouds.13 mph93%29.92 "Hg6 mi
6:20 AM46 °FPassing clouds.15 mph93%29.92 "Hg6 mi
5:50 AM46 °FPassing clouds.13 mph93%29.92 "Hg6 mi
5:20 AM46 °FLow clouds.13 mph93%29.92 "Hg6 mi
4:20 AM46 °FPassing clouds.14 mph93%29.92 "HgN/A
3:50 AM46 °FPartly cloudy.13 mph93%29.92 "HgN/A
3:20 AM46 °FPartly cloudy.13 mph93%29.92 "HgN/A
2:50 AM46 °FPassing clouds.14 mph93%29.92 "HgN/A
2:20 AM45 °FPassing clouds.10 mph100%29.92 "HgN/A
1:50 AM45 °FPassing clouds.12 mph100%29.92 "HgN/A
1:20 AM45 °FPassing clouds.15 mph100%29.92 "HgN/A
12:50 AM45 °FPartly cloudy.15 mph100%29.89 "HgN/A
12:20 AM45 °FPassing clouds.15 mph100%29.89 "HgN/A
11:20 PM
Dec 17
45 °FLight rain. Partly cloudy.12 mph93%29.89 "HgN/A
10:50 PM45 °FLight rain. Passing clouds.13 mph93%29.86 "HgN/A
10:20 PM43 °FLight rain. Passing clouds.13 mph100%29.86 "HgN/A
9:50 PM43 °FLight rain. Passing clouds.14 mph100%29.86 "HgN/A
9:20 PM43 °FLight rain. Passing clouds.14 mph100%29.83 "HgN/A
8:50 PM43 °FPassing clouds.14 mph100%29.83 "HgN/A
8:20 PM43 °FPassing clouds.13 mph93%29.80 "HgN/A
7:50 PM43 °FDrizzle. Low clouds.14 mph93%29.80 "HgN/A
7:20 PM43 °FLow clouds.15 mph93%29.80 "HgN/A
6:50 PM43 °FPartly cloudy.13 mph93%29.77 "HgN/A
6:20 PM41 °FPartly cloudy.9 mph100%29.77 "Hg4 mi
5:50 PM41 °FDrizzle. Fog.10 mph100%29.77 "Hg3 mi
5:20 PM41 °FPassing clouds.9 mph93%29.74 "Hg4 mi
4:50 PM41 °FDrizzle. Fog.9 mph93%29.74 "Hg3 mi
4:20 PM41 °FDrizzle. Partly sunny.9 mph93%29.74 "Hg2 mi
3:50 PM41 °FDrizzle. Partly sunny.12 mph93%29.74 "Hg5 mi
3:20 PM41 °FDrizzle. Broken clouds.14 mph93%29.71 "Hg6 mi
2:50 PM41 °FLight rain. Mostly cloudy.13 mph93%29.71 "HgN/A
2:20 PM39 °FLight rain. Mostly cloudy.14 mph100%29.71 "HgN/A
1:50 PM39 °FLight rain. Broken clouds.16 mph93%29.74 "HgN/A
1:20 PM39 °FLight rain. Broken clouds.17 mph93%29.74 "Hg4 mi
Weather by CustomWeather, © 2014

See weather overviewHow to use our weather pages